GFSGBSN_925_rhum_072.txt.gz
RH
81 76 78 92 94 88 91 94 85 79 70 67 65 66 71 73 81 84 80 78 74 72 72 69 66 61 88 81 54 13 20 23 29 23 21 22 24 25 25 23 19 22 20 20 20 24 26
83 88 88 89 81 78 75 78 83 84 87 88 80 70 66 65 71 74 72 69 67 72 73 70 66 82 95 73 20 24 30 34 27 23 21 20 20 22 22 22 22 20 21 26 25 24 30
78 82 88 82 78 78 78 77 74 74 71 77 81 87 76 62 65 63 58 62 67 66 64 70 68 94 85 59 8 28 28 32 37 25 24 22 19 21 22 23 22 22 27 26 23 22 26
84 76 78 83 79 80 76 75 76 77 75 74 69 74 85 88 79 73 57 64 63 63 55 72 83 98 88 17 14 38 17 18 16 29 31 27 25 23 24 23 24 25 26 30 20 25 27
79 86 86 92 83 80 80 82 79 76 72 70 70 68 70 92 88 76 70 54 50 52 67 89 91 89 83 28 44 23 36 33 21 22 29 29 26 31 25 31 34 35 31 32 28 24 34
79 85 84 81 82 83 87 88 87 83 82 80 76 73 66 65 75 82 74 50 54 75 85 88 89 67 43 20 27 32 35 42 27 36 36 41 39 41 42 39 44 37 40 38 35 26 30
80 79 81 82 84 84 88 91 89 85 86 87 85 83 78 60 63 72 78 61 68 70 71 76 74 56 41 44 43 36 36 34 29 34 44 42 48 50 45 37 30 32 34 36 34 28 27
80 77 79 81 83 84 86 92 90 85 84 87 86 87 85 75 60 62 71 83 73 76 94 64 69 66 57 56 60 29 32 36 36 40 40 39 48 36 35 35 33 33 35 38 34 28 32
87 71 78 81 80 84 86 92 91 86 84 78 81 85 83 77 75 67 75 75 78 76 94 70 60 56 39 41 52 43 33 33 36 42 43 42 37 32 31 36 36 39 36 38 36 33 32
81 68 70 79 80 83 88 95 95 79 72 74 83 85 83 82 74 78 87 86 62 84 97 56 66 48 30 46 59 33 27 25 35 39 40 41 29 33 34 34 32 38 34 33 35 38 48
92 74 70 73 81 81 88 92 78 69 72 71 82 84 85 86 71 77 78 53 61 89 24 16 42 28 37 28 21 34 26 31 32 36 37 44 41 37 41 36 31 31 34 37 36 43 41
95 87 78 74 73 83 88 88 83 69 77 75 80 85 85 96 100 84 64 61 81 88 59 24 32 41 45 37 31 34 39 26 28 31 34 34 34 35 31 29 31 31 34 36 43 50 64
90 81 78 74 76 90 90 91 84 80 83 82 82 85 89 96 81 68 72 78 97 94 36 23 32 40 40 39 34 31 38 40 32 35 41 34 35 30 29 38 36 34 42 59 63 66 65
88 94 83 73 80 83 91 88 81 78 86 85 81 85 90 95 90 72 65 95 94 54 53 34 30 30 38 30 29 28 36 41 32 33 31 40 45 34 33 33 38 44 47 68 60 69 52
90 89 81 80 82 88 88 80 81 79 84 86 83 92 100 100 94 88 89 99 69 61 49 54 37 32 39 35 42 26 34 34 26 34 35 47 42 26 30 31 28 40 50 38 47 61 74
84 86 87 79 78 82 84 79 77 80 81 88 98 99 93 96 96 82 94 77 68 54 57 59 56 48 53 46 46 46 41 41 34 29 33 38 46 35 29 28 29 34 37 49 63 61 69
82 84 88 86 85 85 84 77 80 86 78 89 100 98 88 85 98 98 92 79 59 48 53 64 66 62 58 54 45 44 46 47 57 55 33 34 42 42 34 38 39 39 40 40 49 63 61
77 82 88 89 87 84 83 80 76 88 77 96 96 98 100 91 100 98 90 69 53 55 53 55 57 60 57 51 46 50 50 54 53 55 56 42 47 50 35 31 30 32 38 40 53 52 74
80 82 92 91 84 84 84 82 75 86 82 96 98 99 100 86 97 93 70 65 63 61 56 58 58 64 56 48 43 42 49 44 42 57 71 67 72 69 54 38 34 37 36 37 48 54 48
84 85 90 86 84 85 84 82 79 78 83 99 100 99 99 98 85 73 78 78 69 60 66 63 67 59 60 60 47 53 53 44 44 39 76 63 68 70 83 71 67 62 44 35 38 56 52
83 84 82 80 81 85 83 81 84 82 82 99 100 99 96 98 97 80 68 67 71 77 60 60 65 67 66 74 73 57 47 47 44 54 57 61 82 85 80 72 65 66 60 46 40 38 45
90 90 88 87 84 83 83 81 87 85 85 98 99 100 97 94 75 86 79 76 68 62 67 68 69 64 64 69 65 62 52 47 47 57 74 78 75 90 87 73 66 67 61 47 42 38 38
98 98 97 94 92 90 87 86 88 90 92 96 98 92 94 96 92 97 83 72 69 58 57 53 62 66 68 62 59 58 52 54 58 60 61 79 88 95 84 79 66 71 58 48 46 39 39
89 91 98 98 98 97 91 89 95 95 94 97 94 88 98 98 94 91 71 67 65 60 66 60 54 62 57 49 54 64 67 65 66 65 66 80 86 95 96 84 92 49 55 38 53 47 38
91 93 86 94 97 98 99 100 97 96 93 100 96 86 90 97 92 82 77 73 63 59 64 60 55 48 47 55 74 74 77 83 82 80 71 78 91 99 97 93 67 47 33 44 49 48 35
94 93 90 81 91 95 95 97 98 98 96 100 98 98 93 96 95 70 80 87 88 77 72 66 54 48 48 76 98 96 85 71 74 88 75 80 80 89 100 100 91 44 36 43 39 49 45
100 95 96 89 82 82 94 95 96 95 99 99 96 98 97 98 83 72 83 94 76 73 78 69 65 72 62 99 97 97 90 58 74 84 89 98 99 94 98 96 82 63 64 55 78 55 80
84 100 93 93 90 86 79 84 92 100 97 100 96 96 96 100 95 79 67 80 69 65 80 74 81 84 92 94 90 88 93 75 66 73 88 90 96 97 94 97 94 56 70 72 74 69 69
83 81 100 95 91 89 88 84 73 96 99 100 97 100 98 96 99 94 85 71 54 51 55 63 66 76 81 88 91 84 91 94 79 88 73 84 77 88 85 81 60 52 47 58 69 46 52

GFSGBSN_925_rhum_075.txt.gz
RH
87 85 72 78 72 72 76 74 78 82 84 84 83 81 80 70 63 62 65 62 59 64 68 68 69 68 44 50 28 11 11 22 37 24 21 22 24 26 26 22 20 23 19 18 17 19 22
79 78 75 74 73 73 75 77 72 71 71 72 73 77 82 82 69 68 69 61 57 61 63 67 73 81 90 34 12 18 23 30 26 26 22 21 19 22 23 22 21 19 19 18 22 20 22
72 76 77 80 80 72 72 76 74 74 74 74 74 72 73 75 87 83 78 68 62 58 54 62 93 97 79 30 6 24 18 26 38 27 24 21 18 20 22 23 21 22 24 22 20 18 20
72 74 75 74 72 75 78 78 80 79 79 76 76 74 73 68 70 85 80 77 68 48 58 53 95 98 75 11 13 10 19 18 15 30 31 27 22 24 24 24 24 25 27 25 19 25 34
90 84 82 76 75 75 78 78 82 88 87 82 81 77 74 71 64 58 68 66 48 69 74 90 98 90 57 26 43 18 33 34 26 24 29 30 28 31 27 28 28 31 23 27 21 21 35
91 90 82 82 76 78 80 86 82 83 81 82 86 86 83 78 75 66 60 43 65 72 89 95 93 76 34 16 25 36 44 39 30 36 36 36 37 39 37 31 32 28 32 30 24 26 28
79 78 78 86 85 78 81 83 85 82 82 81 84 86 85 82 80 77 59 58 65 64 70 71 67 42 36 49 45 40 38 40 32 32 41 46 42 48 40 32 25 26 29 25 26 26 26
93 93 87 79 81 82 81 83 83 86 84 85 80 75 80 83 86 78 62 76 74 79 90 63 67 60 54 58 58 37 32 36 37 31 39 43 49 38 36 35 31 29 30 28 26 26 28
84 88 82 83 76 81 86 84 85 88 80 77 74 76 81 86 84 70 73 72 83 74 97 65 57 60 46 42 48 36 34 36 35 38 38 38 36 35 36 38 37 34 34 30 26 29 26
85 75 81 80 84 78 79 83 94 94 79 74 71 70 82 89 83 78 88 87 54 79 92 51 65 59 40 40 52 28 21 23 38 37 39 35 29 37 34 34 35 41 31 29 30 30 26
89 86 72 75 76 72 71 77 93 95 92 89 74 72 84 91 85 76 56 62 60 91 39 20 45 29 34 26 24 37 26 25 20 38 39 39 40 37 39 34 30 30 31 30 29 31 34
88 90 88 68 68 72 69 73 83 93 82 84 84 79 85 95 98 89 73 65 78 91 66 30 36 43 41 36 34 38 36 30 23 31 39 34 32 31 28 31 28 29 32 36 42 41 52
84 84 86 77 67 75 71 76 81 88 78 77 81 81 89 98 84 72 69 73 88 87 39 34 34 44 46 44 38 38 46 40 33 32 42 38 33 32 31 33 33 31 37 45 56 58 47
89 84 79 89 84 74 72 74 76 78 75 79 87 88 87 94 96 76 66 87 87 51 54 39 40 42 44 33 33 33 42 41 33 33 24 34 44 32 31 34 38 40 38 48 45 57 43
85 85 86 89 89 68 70 79 78 78 77 78 83 94 96 93 100 91 88 98 60 55 51 60 48 46 42 37 42 33 37 39 30 29 29 35 31 27 32 30 30 43 48 35 46 58 58
80 82 84 78 77 65 75 74 80 91 86 80 98 97 88 89 93 92 98 74 66 55 57 58 65 53 55 46 42 45 46 54 56 33 34 38 41 33 29 29 30 33 34 47 50 52 50
83 84 86 86 88 84 82 85 85 91 90 84 99 94 74 88 99 99 96 80 52 38 44 62 64 61 56 52 45 47 53 49 54 57 37 35 41 40 36 34 35 37 39 42 40 50 44
85 85 86 86 80 88 94 90 87 90 82 94 92 99 99 95 99 100 96 74 50 46 47 55 56 60 57 51 44 40 52 48 36 45 61 57 47 46 34 30 29 33 36 38 50 49 62
80 81 81 82 84 85 95 93 85 83 89 89 96 99 99 94 96 96 98 80 57 54 57 57 58 60 56 53 48 47 47 43 42 35 34 52 64 57 46 38 41 43 37 36 45 48 48
80 83 81 82 86 89 95 94 91 83 90 97 100 99 99 98 88 79 95 78 71 56 55 60 63 60 60 59 50 53 50 41 45 39 51 53 68 89 68 73 68 74 61 55 48 55 45
86 86 85 83 85 86 92 90 84 84 77 95 100 99 95 98 97 87 71 68 70 68 57 58 62 62 62 66 64 55 44 44 42 46 59 53 61 58 66 48 51 57 62 56 60 52 52
95 93 91 87 89 89 87 87 83 81 75 98 100 100 99 100 80 98 92 93 73 65 65 63 70 65 63 64 54 48 51 49 47 49 52 54 75 77 78 54 45 60 56 42 52 49 44
97 91 94 97 96 90 88 89 88 81 86 96 92 99 99 98 83 99 94 77 73 60 56 50 53 58 61 65 58 56 54 54 52 57 59 61 84 88 76 70 68 64 46 49 40 41 43
89 94 98 96 92 98 96 92 89 88 86 88 93 92 97 96 96 94 83 70 65 62 61 53 53 63 58 54 59 58 67 65 64 62 58 62 67 94 90 87 81 39 41 45 47 42 37
91 88 88 93 92 96 95 96 95 89 89 98 94 91 95 95 95 91 74 78 62 60 61 56 56 49 53 56 97 82 72 81 73 68 67 62 67 98 94 85 56 38 29 36 47 38 61
93 94 98 95 91 90 89 98 97 97 90 99 97 97 92 100 92 71 76 71 78 84 81 64 59 59 71 100 95 85 81 66 67 70 70 74 74 98 98 89 81 43 40 51 39 56 60
95 91 94 98 100 90 88 88 97 96 97 98 97 98 95 97 80 73 80 88 65 73 88 76 81 96 80 100 92 83 74 58 62 77 79 86 99 95 87 91 70 56 48 56 60 50 53
80 83 86 86 95 98 91 86 97 95 98 100 96 98 96 100 95 68 68 83 77 79 88 81 93 95 100 96 90 85 86 68 60 59 78 75 75 80 82 85 81 50 58 56 47 57 56
83 84 82 85 86 99 93 84 92 100 95 99 96 98 99 95 98 93 75 69 55 60 69 79 70 79 78 82 82 75 82 84 67 66 73 77 74 76 72 64 54 56 51 43 53 55 51

GFSGBSN_925_rhum_078.txt.gz
RH
85 80 78 79 73 72 68 68 68 70 70 70 70 71 74 78 82 82 74 71 71 67 59 51 62 73 62 24 9 17 10 29 41 32 19 17 16 14 16 14 14 18 11 12 12 12 13
85 84 80 79 73 76 77 77 75 72 71 72 70 71 71 71 70 72 82 82 74 65 59 60 57 77 57 34 9 22 21 36 30 27 19 18 17 15 15 14 15 13 14 12 11 12 13
76 68 69 73 76 68 71 70 70 75 74 74 70 72 72 70 69 66 63 66 68 62 42 68 83 81 61 29 14 26 21 21 32 23 22 20 18 15 13 15 14 14 17 12 12 12 12
90 84 79 68 68 71 73 72 73 73 82 84 79 83 82 78 78 77 71 58 46 34 57 64 97 74 55 29 32 25 26 18 15 29 26 20 20 19 18 15 17 18 17 18 13 11 12
90 93 82 75 67 76 70 72 74 78 76 75 78 81 85 82 81 82 72 60 40 64 72 83 88 70 33 29 38 27 26 19 13 18 30 26 22 19 18 20 19 19 18 18 15 13 16
78 86 89 89 70 77 76 70 76 77 80 80 79 78 80 78 81 80 69 53 53 81 78 79 70 64 33 20 20 35 43 34 22 17 22 28 25 27 24 20 25 20 20 18 17 12 15
93 85 82 83 87 74 78 86 85 78 77 83 79 79 72 78 83 77 72 48 33 43 45 44 42 44 34 42 42 34 45 40 26 18 20 27 29 33 24 22 18 17 18 18 13 13 18
87 91 93 93 90 85 83 90 86 74 82 82 77 74 75 84 84 72 67 50 67 69 76 48 43 38 37 44 46 32 34 37 32 25 20 33 35 21 21 22 25 22 21 19 15 16 19
91 90 87 85 78 85 81 84 86 74 84 83 74 74 73 85 82 68 74 59 74 66 70 51 39 42 41 34 40 31 33 26 32 32 22 30 22 21 26 32 30 24 24 21 20 17 17
88 84 86 85 85 86 79 78 87 80 88 80 82 78 75 86 84 65 61 78 72 73 85 36 43 41 41 30 36 26 22 25 26 29 26 25 19 25 32 30 25 26 19 21 24 23 24
91 91 87 76 79 75 71 68 74 74 83 89 88 83 80 89 84 64 62 72 72 75 34 19 31 29 27 31 20 30 22 18 21 24 35 29 25 22 29 29 22 25 18 23 22 23 24
90 89 90 88 75 82 67 77 67 78 78 79 84 78 84 87 94 78 74 71 62 74 32 22 31 37 36 32 24 35 26 16 17 17 30 33 23 24 22 25 25 21 25 25 26 26 36
86 86 85 81 75 80 64 77 72 73 73 82 82 78 93 94 80 78 73 48 62 46 24 28 36 30 32 34 36 36 40 39 29 37 33 29 31 25 25 24 24 23 28 37 44 43 38
86 87 88 89 84 83 83 76 66 76 73 75 78 80 94 88 88 80 65 52 61 30 37 31 37 35 36 33 34 32 48 36 33 26 28 30 39 32 28 26 30 30 29 34 39 38 32
78 89 82 87 85 86 85 77 66 74 72 73 79 82 92 82 96 90 70 77 36 36 37 51 38 36 35 32 35 31 37 39 26 24 26 21 23 20 21 25 25 38 41 27 31 35 40
82 80 92 84 86 77 79 76 63 72 72 85 91 88 68 80 98 93 100 62 43 44 47 48 52 44 45 37 36 34 40 42 45 38 20 31 27 19 22 22 22 26 23 41 38 53 49
77 74 76 84 82 79 78 77 80 69 67 82 91 83 63 87 99 98 94 64 44 31 36 51 56 53 46 44 34 41 46 34 30 38 32 26 38 39 29 32 29 30 33 30 27 33 40
84 83 82 83 83 81 83 86 86 80 63 83 86 92 85 99 99 99 95 58 43 36 32 41 49 50 48 44 38 33 48 37 29 30 38 37 35 36 33 26 22 26 30 29 37 37 36
88 86 86 79 80 80 75 89 80 86 70 76 79 72 96 96 93 90 99 64 45 41 39 40 46 48 44 46 44 36 36 29 32 28 37 40 40 36 30 25 25 28 28 28 29 31 38
82 77 76 79 78 79 84 89 89 80 70 90 98 99 85 96 84 64 72 71 60 44 41 40 44 50 46 46 39 44 41 31 30 28 63 44 66 65 40 47 47 54 49 44 45 48 39
90 88 85 84 83 86 85 88 93 82 68 88 100 95 66 98 87 96 62 50 55 53 45 42 47 48 48 51 45 47 38 34 30 37 39 46 47 58 53 49 41 45 44 41 44 45 56
95 96 96 92 86 84 86 82 86 82 69 89 99 99 94 76 86 85 96 77 54 46 48 51 52 42 46 54 46 46 37 37 40 34 41 44 38 38 39 36 30 34 32 33 34 31 34
95 93 96 97 94 97 90 84 81 70 69 83 71 84 92 71 62 80 99 60 57 47 45 41 45 52 52 45 39 41 43 46 46 48 48 50 61 54 49 41 36 48 38 31 27 32 34
87 84 87 92 96 93 93 95 87 83 80 69 67 78 94 80 81 61 52 71 75 60 51 47 46 55 52 38 51 50 51 47 47 49 47 49 56 70 58 77 66 30 25 28 33 27 27
91 90 87 88 92 93 91 93 95 92 82 86 74 79 85 86 53 49 51 60 54 53 58 57 50 50 53 68 81 66 60 61 54 50 51 47 51 70 70 51 34 28 25 29 34 28 42
95 94 95 98 97 91 95 96 91 97 92 93 79 79 83 89 64 42 54 73 80 62 66 63 63 63 71 97 95 72 66 47 52 53 46 48 49 61 77 58 58 38 35 36 31 34 34
98 94 94 87 91 94 100 97 97 96 97 95 81 82 82 100 63 47 54 56 68 58 70 72 94 97 92 99 91 67 56 43 51 58 85 73 71 81 68 71 51 35 28 38 46 45 34
94 87 80 79 80 81 87 100 94 94 99 100 92 88 83 97 75 54 54 63 54 65 72 89 95 98 100 96 73 65 62 48 44 43 64 64 71 80 66 74 73 40 38 44 40 37 39
83 79 78 80 81 83 85 97 95 91 97 100 96 99 89 92 94 69 61 57 51 57 70 82 65 75 62 67 61 55 60 58 45 51 37 58 44 51 46 44 40 49 42 44 55 58 56

GFSGBSN_925_rhum_084.txt.gz
RH
89 83 81 77 72 72 85 88 74 70 67 70 77 74 73 75 89 82 75 70 65 64 58 56 58 73 62 32 31 18 16 14 28 31 25 18 18 17 18 14 12 12 11 10 9 9 8
93 88 88 86 85 80 72 73 68 69 69 67 71 84 83 74 76 84 80 73 67 63 60 57 60 82 64 45 21 22 15 11 12 19 22 19 16 15 16 15 14 11 10 10 9 9 9
88 90 90 86 83 76 70 63 65 64 65 68 73 82 74 71 72 73 70 67 62 57 53 58 66 84 59 33 18 18 17 14 12 11 18 18 16 16 15 16 12 11 13 12 11 10 11
94 95 89 86 76 83 76 68 65 70 64 65 72 75 75 73 71 69 62 60 56 47 51 58 76 80 53 22 20 20 22 23 18 12 12 17 18 21 17 15 15 16 15 18 13 11 10
83 83 94 92 84 81 79 74 67 67 63 66 73 73 79 76 70 64 60 56 44 44 56 68 90 65 36 19 23 22 18 19 18 16 12 8 10 23 22 26 26 19 23 19 16 11 11
80 82 92 94 84 87 89 89 79 71 65 70 67 72 82 73 68 60 59 56 40 62 56 65 59 48 38 21 14 15 18 18 20 18 14 11 16 22 27 28 36 28 23 20 19 13 12
91 83 80 89 92 87 84 84 90 73 64 73 72 69 79 70 64 59 76 68 33 49 52 41 30 33 20 16 19 20 21 27 21 20 25 17 28 33 25 27 24 22 22 21 16 12 14
89 90 85 88 90 88 86 90 82 81 72 71 71 69 75 69 61 57 70 55 43 48 59 33 25 23 19 17 20 17 17 31 31 32 25 30 30 21 19 16 21 24 26 24 19 14 14
93 91 81 82 84 90 85 83 80 80 74 72 71 68 69 70 60 64 70 51 49 56 60 33 22 22 21 21 25 20 14 26 33 41 46 55 41 27 28 24 20 20 27 24 23 17 15
86 86 88 85 84 79 76 79 76 85 77 76 65 70 65 67 69 68 48 48 45 59 70 32 29 23 24 23 26 17 15 23 33 41 53 80 49 44 50 46 37 32 21 20 22 24 29
79 83 78 89 90 90 88 71 74 78 83 79 64 70 65 68 78 59 57 54 48 53 53 22 20 21 20 25 20 20 16 19 36 48 58 64 58 52 58 44 43 43 25 31 32 31 28
89 89 88 86 89 90 92 89 71 68 78 77 70 67 64 63 74 66 63 57 54 87 54 17 21 25 26 24 24 19 19 19 28 37 42 53 42 55 58 41 32 44 44 41 35 32 40
90 89 88 85 82 88 79 75 86 78 75 79 69 68 70 68 73 74 62 62 84 57 14 16 21 20 19 18 18 21 28 29 41 58 56 46 46 39 32 56 35 30 44 80 74 53 48
85 86 84 85 87 88 83 89 76 87 68 75 71 71 72 60 65 66 68 72 63 22 20 17 20 20 21 19 23 26 24 31 29 34 35 70 66 45 39 37 47 38 34 70 71 62 45
78 83 88 89 82 74 85 80 80 79 80 78 76 72 61 58 63 72 81 80 36 27 17 22 22 20 16 22 25 27 31 32 24 28 37 58 61 29 36 32 44 53 46 30 50 54 78
85 84 82 82 87 83 88 72 82 90 72 91 76 56 50 45 57 84 94 65 38 20 21 25 26 19 23 24 28 27 32 36 35 25 24 32 59 34 31 29 34 43 37 64 68 77 91
83 86 88 89 87 84 85 84 75 79 86 84 79 74 40 45 71 95 96 53 35 25 21 31 26 26 26 27 28 26 66 49 30 31 30 28 40 39 42 48 55 45 66 75 67 58 98
93 93 88 90 89 89 80 86 77 77 77 88 68 92 47 63 96 94 88 50 39 28 21 23 28 29 33 30 32 31 63 40 30 30 42 37 44 45 40 39 25 36 43 55 93 88 61
93 94 94 94 90 88 88 76 78 73 78 87 79 58 43 74 85 87 60 49 39 35 28 25 27 25 25 30 35 31 31 36 33 33 37 36 41 50 45 37 27 32 42 44 55 63 96
93 96 96 96 94 89 86 83 80 74 79 90 97 83 51 84 73 61 68 54 46 31 30 27 25 22 25 30 28 34 33 30 28 30 42 40 46 52 83 80 81 45 33 39 47 66 77
95 98 98 96 97 95 90 86 90 81 80 92 99 78 50 80 73 76 61 76 50 40 34 28 31 27 27 34 31 32 27 25 24 36 29 35 58 45 38 65 66 63 68 71 40 49 57
94 94 96 97 97 100 96 81 79 85 89 94 100 69 43 61 53 52 55 60 61 48 38 39 34 26 25 30 29 33 35 40 53 36 33 34 49 41 41 36 33 38 49 36 59 56 38
96 93 89 87 92 96 98 94 76 71 87 88 94 63 52 68 46 52 63 42 42 39 39 36 37 26 29 30 53 48 42 44 46 42 41 42 45 44 50 35 41 54 40 30 26 24 26
96 92 83 81 85 93 90 96 96 72 85 72 85 58 80 70 51 54 35 41 42 38 40 38 67 67 42 42 41 40 39 37 38 39 38 46 46 47 59 47 77 38 26 24 29 24 22
87 87 92 89 83 89 89 94 94 91 82 76 66 76 59 77 46 37 36 37 36 53 57 56 65 56 42 47 61 61 57 56 51 43 42 41 47 62 64 53 36 26 21 21 23 23 30
86 91 93 93 88 84 84 87 93 97 92 86 70 71 80 77 63 38 34 31 40 58 80 61 45 47 51 64 75 72 61 51 52 48 41 41 47 61 63 63 56 26 18 22 19 33 37
96 98 99 96 94 92 91 89 94 94 95 92 74 70 82 96 54 45 48 41 37 43 60 71 66 68 68 99 95 67 60 39 57 58 60 61 63 75 72 69 43 24 28 26 41 59 42
99 98 97 96 96 93 94 95 96 98 94 100 86 71 80 87 62 46 40 48 42 42 72 71 98 91 99 100 96 59 66 54 50 41 51 58 78 78 67 69 72 28 28 43 54 47 44
94 92 93 89 85 90 90 94 93 100 99 99 96 80 76 81 54 46 44 42 46 50 93 85 90 79 58 70 56 57 85 65 51 50 39 62 47 55 48 48 32 45 54 46 43 46 46

GFSGBSN_925_rhum_087.txt.gz
RH
94 93 91 90 88 89 87 86 72 67 67 68 68 67 75 95 93 87 77 78 69 64 62 62 69 89 57 48 41 16 21 23 22 26 36 33 22 22 28 23 21 20 16 14 13 12 13
95 95 92 91 90 78 88 86 80 65 66 65 64 66 74 74 73 72 68 64 61 58 60 60 78 95 81 62 14 13 19 22 22 15 25 24 24 20 24 22 22 18 16 15 13 12 12
91 93 88 90 86 74 78 81 71 67 67 69 63 68 70 71 73 72 63 58 52 55 59 62 79 96 77 60 14 12 17 19 20 22 14 15 22 25 23 25 20 20 22 17 15 15 15
89 86 83 86 86 85 79 80 77 71 67 65 64 62 71 71 79 72 59 50 49 54 57 59 93 93 84 25 16 24 21 22 21 21 19 13 10 16 26 27 25 26 24 26 19 16 14
94 90 83 88 95 89 82 85 83 77 71 63 66 68 67 70 74 66 54 48 47 49 59 67 96 94 74 31 31 19 23 22 20 20 19 16 12 14 22 36 40 32 39 30 22 15 15
87 88 92 86 84 90 92 86 78 87 83 67 67 66 70 68 70 61 54 50 48 64 62 74 72 86 60 34 18 20 19 16 22 22 25 19 14 21 32 41 53 44 38 31 28 20 17
93 89 90 88 85 87 92 88 88 79 81 76 68 68 67 64 67 58 60 72 52 68 54 64 61 56 33 28 21 16 19 27 27 27 34 22 22 30 32 33 34 33 36 33 26 18 19
85 85 92 92 83 82 87 91 88 79 80 78 70 68 67 63 62 56 62 89 49 53 77 50 44 37 34 25 27 19 16 27 31 39 30 34 33 22 21 23 28 35 48 53 31 23 22
92 94 92 91 87 88 89 87 78 82 79 85 69 65 63 63 59 57 74 70 50 50 81 56 36 38 31 26 29 26 19 21 35 46 46 53 40 37 34 28 36 46 39 40 34 26 24
77 81 83 86 91 92 87 79 88 75 68 81 75 68 63 64 59 74 69 58 57 48 84 49 32 22 21 23 31 21 20 20 34 43 49 73 61 63 55 50 39 50 35 31 45 64 76
88 90 93 93 94 82 93 91 91 76 74 77 76 74 65 64 70 77 59 63 58 54 93 35 26 20 24 28 26 22 18 21 34 49 61 64 63 75 81 56 55 50 43 48 66 68 57
89 92 92 93 91 91 91 78 74 72 76 73 70 73 67 61 71 64 74 70 69 94 89 21 27 31 30 29 28 24 20 19 28 37 53 54 42 52 70 61 57 56 79 70 65 70 94
80 83 89 88 86 87 89 91 81 84 74 73 77 75 77 75 74 70 68 80 91 95 24 21 30 23 24 23 26 27 27 35 52 64 63 48 45 45 44 62 56 80 89 100 99 99 88
80 79 79 83 87 90 90 79 91 77 86 72 75 78 72 75 69 62 71 96 94 44 31 20 21 21 26 21 23 28 32 38 39 47 48 57 78 42 40 55 68 65 88 95 85 92 78
88 88 88 86 85 86 87 80 90 84 83 77 80 77 83 63 62 64 95 98 69 37 27 28 23 26 25 19 25 31 34 38 33 36 49 56 60 42 45 54 44 78 88 57 88 73 100
80 82 85 86 90 91 88 88 90 82 79 82 89 94 79 62 56 70 99 83 51 33 30 27 33 26 27 29 29 58 52 49 41 30 30 35 54 39 38 43 48 69 73 79 98 92 96
82 87 91 92 89 90 92 90 87 88 79 87 95 99 53 44 55 92 96 89 49 36 29 30 34 39 39 36 33 34 77 49 36 37 36 35 47 47 40 62 60 65 96 92 80 77 99
90 91 94 96 95 92 92 90 76 88 78 90 97 99 54 61 95 97 98 71 45 37 33 34 26 33 37 39 41 37 58 46 33 37 44 43 55 60 45 34 46 69 80 82 99 82 80
93 94 95 96 96 96 95 88 73 75 78 83 100 85 49 70 94 97 86 80 55 51 43 37 33 28 30 36 46 34 50 40 35 37 43 41 68 81 57 45 37 51 67 70 72 86 98
93 93 94 94 92 95 95 77 84 73 70 84 100 99 78 98 100 86 76 66 61 42 41 35 34 33 35 37 34 44 39 42 39 35 34 41 58 65 86 91 96 86 68 66 91 99 78
91 87 91 91 87 91 94 91 79 80 78 90 100 96 72 94 94 97 84 96 89 56 37 34 37 37 40 46 40 42 39 35 39 47 38 44 66 60 50 44 83 87 95 83 89 78 96
94 94 90 90 91 91 95 94 91 83 79 91 100 97 65 70 70 75 72 75 63 55 52 58 50 39 38 42 39 44 55 56 61 47 42 38 58 55 56 39 38 70 61 68 74 86 79
95 95 90 88 86 87 90 90 89 85 81 84 88 77 92 79 70 72 88 63 55 51 48 40 47 74 75 60 58 55 54 54 56 60 58 54 56 62 69 47 45 65 51 62 61 59 54
96 95 95 94 88 86 86 87 92 88 83 76 70 72 87 93 70 64 54 49 51 48 58 48 51 73 61 70 52 48 50 52 55 57 52 58 63 58 74 57 78 48 34 32 33 42 40
91 95 95 95 88 84 85 88 91 92 93 89 73 80 87 96 64 54 49 43 45 46 57 62 60 63 81 78 79 66 68 63 59 51 52 52 63 79 83 75 49 34 27 29 29 55 55
94 96 98 98 92 91 88 83 93 92 92 97 81 75 86 92 81 52 52 53 69 69 65 62 75 85 84 99 84 81 84 68 59 55 46 50 61 77 83 81 76 43 29 29 31 72 50
90 97 98 99 98 97 93 86 84 90 92 99 88 75 80 93 73 64 68 71 77 64 100 76 76 96 92 96 97 92 82 48 71 76 76 72 76 84 84 93 71 37 33 33 54 78 58
98 98 99 98 95 95 96 96 89 88 94 100 96 72 81 92 68 62 57 70 66 88 98 85 92 96 94 99 97 85 85 70 67 60 82 73 84 93 87 86 81 46 40 61 73 59 54
99 98 98 93 90 93 90 95 94 94 95 100 97 91 75 84 72 57 53 53 52 57 92 98 98 98 91 87 83 84 95 89 94 94 74 93 66 80 68 69 86 78 72 70 55 60 60

GFSGBSN_925_rhum_093.txt.gz
RH
91 94 94 91 94 95 96 95 87 82 84 75 71 65 72 84 86 87 81 73 70 73 91 93 94 93 81 74 56 7 19 15 18 37 37 41 30 25 25 27 34 38 31 27 24 24 22
94 95 94 90 88 90 94 84 84 79 76 79 80 70 72 82 85 79 73 65 63 65 78 93 94 94 84 89 18 18 24 19 16 41 46 43 33 23 22 25 30 28 29 29 27 26 22
89 87 92 93 93 87 86 80 72 82 79 75 82 80 74 65 65 66 63 62 60 61 60 84 95 94 75 72 16 20 17 15 17 26 35 28 30 33 28 31 28 28 31 29 29 25 25
89 95 91 92 93 94 92 89 91 90 96 92 81 84 78 65 60 58 57 54 55 51 48 90 96 94 86 53 32 45 14 30 27 24 26 22 22 17 21 23 30 34 34 41 28 28 24
91 94 96 95 95 95 94 88 85 91 94 94 88 76 77 72 67 64 55 54 45 47 79 98 96 88 83 46 54 26 41 37 24 22 25 22 19 20 14 27 44 43 52 43 35 25 23
81 90 94 92 91 92 91 90 86 93 82 83 82 76 73 76 69 58 56 49 49 84 92 96 87 91 70 40 38 26 25 30 22 26 26 26 27 20 35 49 54 55 53 44 40 28 34
82 84 89 91 93 92 91 91 88 89 94 92 84 72 71 74 65 59 57 66 73 65 71 81 70 72 53 47 39 28 22 22 26 30 39 27 33 35 27 39 38 42 46 50 42 34 43
78 78 79 80 81 86 86 87 91 96 95 93 94 88 78 78 65 59 71 88 79 85 90 63 58 58 59 56 64 47 28 23 40 48 37 39 38 27 23 27 32 38 45 44 44 40 38
81 92 94 90 88 88 88 90 92 93 94 94 93 84 70 76 66 63 69 64 70 76 88 64 51 52 49 44 58 50 36 23 28 46 46 54 43 36 29 26 30 31 38 43 45 42 46
73 83 90 90 89 91 93 92 90 90 93 94 93 79 68 78 63 70 66 57 69 75 92 63 61 51 39 34 49 34 25 24 28 38 46 46 50 61 67 66 57 70 41 43 45 63 63
74 74 81 80 84 91 91 92 91 90 90 94 75 71 70 81 86 87 59 65 64 84 96 29 48 33 33 29 28 36 24 22 40 56 59 62 75 74 73 69 66 68 51 52 48 77 89
74 77 81 85 86 85 86 87 88 92 93 91 76 79 76 77 80 68 67 60 76 86 79 45 33 42 39 34 32 28 28 22 29 54 53 52 57 61 58 60 65 60 62 62 74 81 89
90 88 90 92 91 91 91 93 91 92 83 79 79 82 83 89 88 70 71 82 95 88 39 42 40 38 38 42 37 28 35 45 49 61 66 54 60 56 64 72 66 76 81 97 98 96 86
89 88 89 89 86 89 89 89 94 93 92 80 79 76 81 72 71 79 76 98 90 48 49 42 38 40 49 41 40 31 37 46 46 48 62 70 50 59 58 61 76 92 77 91 88 93 85
85 89 91 90 87 90 92 92 91 94 93 92 80 76 79 56 64 80 97 97 68 59 68 73 44 44 39 30 36 35 41 42 44 45 46 59 56 45 54 52 58 81 89 80 100 100 99
87 86 88 91 91 93 95 95 95 93 84 86 89 88 86 72 78 85 98 93 66 52 61 69 54 42 51 43 49 48 58 52 45 44 33 41 51 49 57 59 60 77 81 99 100 97 96
87 82 92 94 96 95 94 95 95 93 82 79 85 98 64 80 82 89 98 89 61 45 56 95 57 45 47 49 45 69 75 58 38 45 36 43 46 50 64 73 83 83 91 96 97 100 98
82 86 93 95 95 95 94 96 91 81 80 80 89 91 70 84 94 96 95 78 67 59 51 92 58 45 46 48 48 63 85 60 35 37 47 39 61 70 57 41 59 77 79 91 100 98 93
88 89 90 94 95 96 95 91 86 79 82 86 94 91 65 82 98 97 79 77 57 64 60 92 81 48 44 51 51 59 58 46 38 38 41 42 64 83 69 66 72 85 86 92 89 98 98
89 85 90 88 95 94 95 84 86 81 82 83 97 98 88 96 99 95 81 67 77 54 52 56 62 50 48 50 47 47 53 52 44 38 46 45 60 73 91 87 69 93 80 82 96 100 95
85 83 92 96 96 94 88 84 95 88 80 83 94 94 89 97 98 97 86 81 90 78 58 56 60 70 74 76 65 61 57 48 49 52 40 55 64 63 65 68 61 75 79 74 84 94 100
77 77 87 95 96 91 92 82 91 87 86 88 92 91 83 88 78 100 96 85 86 90 64 61 59 62 72 86 82 84 76 59 58 56 51 55 60 58 64 56 62 69 47 43 65 74 86
88 80 89 94 96 93 94 84 88 86 88 91 91 88 88 79 80 81 95 96 96 89 70 55 62 66 67 70 68 65 68 68 63 59 60 59 64 71 75 56 53 55 51 50 67 64 77
79 77 89 93 95 96 94 82 90 92 87 68 78 80 92 92 78 68 64 57 67 68 72 55 57 63 68 62 61 59 57 63 65 65 63 66 68 74 86 58 70 39 29 68 66 80 74
80 86 88 92 96 93 91 83 87 96 98 76 69 75 93 100 83 74 68 63 64 64 68 74 84 92 86 74 73 73 71 64 62 68 69 66 72 80 84 73 48 42 44 55 60 61 70
75 86 88 95 96 84 87 87 83 86 95 98 81 67 89 97 83 68 69 64 73 91 84 76 76 85 80 96 96 86 80 68 68 59 62 75 69 78 91 85 76 52 59 56 64 91 69
74 90 87 88 93 93 94 93 91 85 89 100 97 77 75 98 85 69 80 82 80 92 96 90 91 87 89 98 95 97 85 63 72 71 73 89 91 90 87 82 74 51 77 66 75 80 73
78 89 93 94 96 92 93 91 91 94 87 100 98 89 86 98 76 64 62 69 88 90 95 89 85 89 95 97 96 89 94 74 77 62 70 80 97 98 92 93 89 81 75 80 83 76 75
88 90 94 96 91 95 91 92 94 94 90 98 98 98 84 95 79 70 56 55 58 69 84 90 95 98 98 100 97 96 98 94 89 91 80 94 85 96 79 76 85 82 87 82 78 81 79